Regional Weather Roundup
Issued by NWS

Home | Current Version | Previous Version | Graphics & Text | Print | Product List | Glossary On
Versions: 1 2 3 4 5 6 7 8 9 10 11 12 13 14 15 16 17 18 19 20 21 22 23 24 25 26 27 28 29 30 31 32 33 34 35 36 37 38 39 40 41 42 43 44 45 46 47 48 49 50
000
ASUS43 KMKX 220000
RWRWI

WISCONSIN REGIONAL WEATHER ROUNDUP
NATIONAL WEATHER SERVICE MILWAUKEE/SULLIVAN WI
700 PM CDT SAT OCT 21 2017

NOTE: "FAIR" INDICATES FEW OR NO CLOUDS BELOW 12,000 FEET WITH NO
SIGNIFICANT WEATHER AND/OR OBSTRUCTIONS TO VISIBILITY.

WIZ001-002-006>008-014>016-023>028-220100-
NORTHWEST WISCONSIN

CITY           SKY/WX    TMP DP  RH WIND       PRES   REMARKS
SUPERIOR ARPT  CLOUDY    65  60  85 S9        29.67S
6HR MIN TEMP:  60; 6HR MAX TEMP:  65; 6HR PCP:  0.04;

ASHLAND        PTCLDY    68  57  68 S15G28    29.72R
6HR MIN TEMP:  62; 6HR MAX TEMP:  68; 6HR PCP:  0.04;

HAYWARD        CLOUDY    66  57  72 S12G22    29.75R
6HR MIN TEMP:  60; 6HR MAX TEMP:  66; 6HR PCP: TRACE;

SIREN          CLOUDY    66  58  75 S12G18    29.70S
CUMBERLAND     CLOUDY    64  55  72 S14       29.74R
RICE LAKE      CLOUDY    66  58  75 S12       29.76R
CHETEK         CLOUDY    67  59  76 S7        29.75S
LADYSMITH      CLOUDY    67  58  72 S10G20    29.80R
EAU CLAIRE     NOT AVBL
MENOMONIE      CLOUDY    69  59  71 S10       29.75R
6HR MIN TEMP:  66; 6HR MAX TEMP:  69;

NEW RICHMOND   CLOUDY    66  57  72 S10       29.71S
OSCEOLA        CLOUDY    67  59  75 S13G23    29.72F
$$

WIZ003>005-009-010-017-018-220100-
NORTH CENTRAL WISCONSIN

CITY           SKY/WX    TMP DP  RH WIND       PRES   REMARKS
MANITOWISH WTR CLOUDY    65  59  78 S12G21    29.81R
ARBOR VITAE    CLEAR     66  57  74 S7        29.83R
WOODRUFF       CLEAR     66  57  74 S7        29.83R
RHINELANDER    MOCLDY    67  57  70 S8        29.85R
6HR MIN TEMP:  64; 6HR MAX TEMP:  68;

EAGLE RIVER    NOT AVBL
LAND O LAKES   MOCLDY    65  55  70 S6        29.85S
6HR MIN TEMP:  65; 6HR MAX TEMP:  69;

PHILLIPS       CLOUDY    65  58  79 S9        29.80R
6HR MIN TEMP:  59; 6HR MAX TEMP:  66;

TOMAHAWK       CLOUDY    64  55  75 CALM      29.84R
MEDFORD        CLOUDY    63  56  80 CALM      29.83S
MERRILL        CLOUDY    69  58  68 S6        29.85R
6HR MIN TEMP:  64; 6HR MAX TEMP:  69;

$$

WIZ029-030-035-036-043>047-220100-
CENTRAL WISCONSIN

CITY           SKY/WX    TMP DP  RH WIND       PRES   REMARKS
WAUSAU         CLOUDY    70  58  65 S9        29.83R
6HR MIN TEMP:  67; 6HR MAX TEMP:  72;

MOSINEE        MOCLDY    70  57  64 SE10      29.85S
MARSHFIELD     MOCLDY    69  57  65 S10       29.83R
6HR MIN TEMP:  66; 6HR MAX TEMP:  70;

STEVENS POINT  CLEAR     68  57  68 S8        29.85F
WAUPACA        CLEAR     72  57  60 SE7       29.88R
WAUTOMA        CLEAR    N/A N/A N/A S9        29.88R
WISC RAPIDS    MOCLDY    71  59  65 S7        29.86R
6HR MIN TEMP:  70; 6HR MAX TEMP:  76;

CAMP DOUGLAS   NOT AVBL
$$

WIZ011>013-019>022-031-037>040-048>050-220100-
NORTHEAST WISCONSIN

CITY           SKY/WX    TMP DP  RH WIND       PRES   REMARKS
ANTIGO         MOCLDY    65  56  74 SE13      29.87S
SHAWANO        CLEAR     68  56  65 SE8       29.88R
6HR MIN TEMP:  68; 6HR MAX TEMP:  77;

OCONTO         CLEAR     62  55  76 SE12      29.90F
STURGEON BAY   CLEAR     61  56  83 S18G26    29.94R
6HR MIN TEMP:  60; 6HR MAX TEMP:  64;

GREEN BAY      CLEAR     64  57  78 SE12      29.91R
6HR MIN TEMP:  64; 6HR MAX TEMP:  76;

MANITOWOC      CLEAR     61  55  81 S18       29.95S
6HR MIN TEMP:  60; 6HR MAX TEMP:  63;

APPLETON       PTCLDY    70  52  52 S13       29.89S
CLINTONVILLE   CLEAR     70  55  60 S10       29.87R
OSHKOSH        PTCLDY    69  56  62 S9        29.90S
6HR MIN TEMP:  65; 6HR MAX TEMP:  75;

$$

WIZ032>034-041-042-053>061-220100-
SOUTHWEST WISCONSIN

CITY           SKY/WX    TMP DP  RH WIND       PRES   REMARKS
LA CROSSE      CLOUDY    71  62  73 S8        29.79S
6HR MIN TEMP:  68; 6HR MAX TEMP:  71; 6HR PCP: TRACE;

SPARTA         CLOUDY    72  59  63 S8        29.83R
VIROQUA        CLOUDY    70  60  70 S7        29.85R
6HR MIN TEMP:  69; 6HR MAX TEMP:  73;

BOSCOBEL       CLOUDY    76  59  55 S7        29.85R
6HR MIN TEMP:  76; 6HR MAX TEMP:  80; 6HR PCP: TRACE;

PRAIRIE DU CHI CLOUDY    74  57  55 SE9       29.82R
PLATTEVILLE    CLOUDY    73  60  65 S14       29.87S
$$

WIZ056-057-062-063-064-067-068-220100-
SOUTH CENTRAL WISCONSIN

CITY           SKY/WX    TMP DP  RH WIND       PRES   REMARKS
REEDSBURG      PTCLDY    71  58  62 S7        29.87R
6HR MIN TEMP:  71; 6HR MAX TEMP:  76;

BARABOO/DELLS  PTCLDY    70  55  59 S10       29.87S
LONE ROCK      MOCLDY    73  60  63 S8        29.86R
6HR MIN TEMP:  72; 6HR MAX TEMP:  78;

MINERAL POINT  CLOUDY    73  59  60 S13G18    29.88S
MADISON        MOCLDY    72  57  59 S12       29.90S
6HR MIN TEMP:  72; 6HR MAX TEMP:  76;

MIDDLETON      PTCLDY    73  57  56 S9        29.89F
WATERTOWN      PTCLDY    70  56  62 S7        29.92R
MONROE         CLOUDY    72  55  56 S18       29.91S
JANESVILLE     MOCLDY    75  57  53 S14G22    29.93R
$$

WIZ051-052-058>065-066-070>072-220100-
SOUTHEAST WISCONSIN

CITY           SKY/WX    TMP DP  RH WIND       PRES   REMARKS
MILWAUKEE      PTCLDY    68  57  68 S8        29.97R
6HR MIN TEMP:  67; 6HR MAX TEMP:  76;

WAUKESHA       CLEAR     70  54  56 S9        29.97R
MILWAUKEE/TIMM CLEAR     70  54  56 SE8       29.96R
RACINE         PTCLDY    65  57  75 S12       29.99R
6HR MIN TEMP:  64; 6HR MAX TEMP:  69;

BURLINGTON     CLEAR     69  58  67 S7        29.96R
KENOSHA        CLEAR     71  57  61 S12       29.98R
6HR MIN TEMP:  71; 6HR MAX TEMP:  77;

FOND DU LAC    CLEAR     69  54  58 S9        29.92R
6HR MIN TEMP:  69; 6HR MAX TEMP:  78;

SHEBOYGAN      CLEAR     63  57  81 S14       29.95S
6HR MIN TEMP:  63; 6HR MAX TEMP:  67;

WEST BEND      CLEAR     64  54  68 SE6       29.95R
JUNEAU         CLEAR     68  55  62 S7        29.93R
$$

LSZ147-162-220100-
LAKE SUPERIOR

STATION/POSITION TIME  TEMP    WIND        PRES    WAVE
                       AIR SEA DIR/SP/G            HT/PER
                 (UTC) (F)     (DEG/KT/KT) (MB)    (FT/S)
W MID LAKE BUOY  2250   57 52              1006.3R   2/ 4
DEVILS ISLAND    2300   66     170/ 12/ 17 1005.4S
PORT WING        2257          180/ 18/ 25 1005.1S
SAXON HARBOR     2330   70     190/ 12/ 19 1006.1R
$$

LMZ867-665-643>646-220100-
LAKE MICHIGAN

STATION/POSITION TIME  TEMP    WIND        PRES    WAVE
                       AIR SEA DIR/SP/G            HT/PER
                 (UTC) (F)     (DEG/KT/KT) (MB)    (FT/S)
S GREEN BAY BUOY 2330   63 58  160/ 19/ 25 1012.3R
N MID LAKE BUOY  2250   64 58  190/ 23/ 27 1014.0S   8/ 7
NORTHPORT PIER   2340   60     170/ 10/ 17 1013.9R
KEWAUNEE LAKESHO 2324   54     180/ 11/ 12 1013.4
SHEBOYGAN LAKESH 2300   56     180/ 17/ 18 1014.1R
PORT WASHINGTON  2340   58     190/  9/ 14 1015.6R
ATWATER BUOY     2209   59 53  160/ 19/ 21 1014.1R
MILWAUKEE LAKESH 2330   58     140/ 13/ 14   N/A
S MID LAKE BUOY  2250   65 61  150/ 16/ 17 1015.8R   3/ 4
KENOSHA   LAKESH 2300   61     170/ 17/ 21 1014.6
$$

TC  - TEMPERATURE IN CELSIUS
VSB - VISIBILITY IN STATUTE MILES
WCI - WIND CHILL INDEX
HX  - HEAT INDEX




USA.gov is the U.S. government's official web portal to all federal, state and local government web resources and services.